Location: *
(38.9800°N, 16.0500°E)
Time: 17:30:44
(UTC+00:00)

CZ-4B R/B - Pass Details

Date: 07 April 2020
Orbit: 487 x 652 km, 97.9° (Epoch: 05 June)

Event Time Altitude Azimuth Distance (km) Brightness Sun altitude
Rises 03:30:43 0° 16° (NNE) 2,887 7.0 -12.1°
Reaches altitude 10° 03:32:55 10° 20° (NNE) 2,000 6.2 -11.7°
Maximum altitude 03:37:14 60° 101° (E) 733 3.7 -10.9°
Drops below altitude 10° 03:41:39 10° 181° (S) 2,042 5.5 -10.1°
Sets 03:43:54 0° 185° (S) 2,954 6.3 -9.7°
